Tracking 29892 objects as of 21-Nov-2024
HD Live streaming from Space Station
objects crossing your sky now

FENGYUN 1C DEB

Track FENGYUN 1C DEB now!
10-day predictions


NORAD ID: 31002
Int'l Code: 1999-025BCU
Perigee: 832.9 km
Apogee: 978.4 km
Inclination: 98.9 °
Period: 103.0 minutes
Semi major axis: 7276 km
RCS: 0.0134 m2 (small)
Launch date: May 10, 1999
Source: People's Republic of China (PRC)
Launch site: Taiyaun Space Center, China (TSC)

Note: This is SATELLITE DEBRIS
Your satellite tracking list
Your tracking list is empty




NASA's NSSDC Master Catalog

Two Line Element Set (TLE):
1 31002U 99025BCU 24326.01831715  .00000636  00000-0  45314-3 0  9999
2 31002  98.9065 343.2124 0099979 338.0258  49.2561 13.98642443902042
Source of the keplerian elements: AFSPC